Location: Ojai
(34.4480°N, 119.2420°W)
Time: 14:46:10
(UTC-07:00)

N. Korean satellite - Visible Passes

Search period start: 21 March 2019 00:00
Search period end: 31 March 2019 00:00
Orbit: 456 x 510 km, 97.2° (Epoch: 20 March)

Date Brightness Start Highest point End Pass type
(mag) Time Alt. Az. Time Alt. Az. Time Alt. Az.
21 Mar 10.3 06:02:28 10° ENE 06:03:23 11° E 06:04:20 10° ESE visible
24 Mar 9.7 06:19:46 10° NE 06:22:27 20° E 06:25:09 10° SE visible
28 Mar 9.8 06:14:06 10° NE 06:16:32 17° E 06:18:59 10° SE visible
